Time,TemperatureF,DewpointF,PressureIn,WindDirection,WindDirectionDegrees,WindSpeedMPH,WindSpeedGustMPH,Humidity,HourlyPrecipIn,Conditions,Clouds,dailyrainin,SolarRadiationWatts/m^2,SoftwareType,DateUTC
2015-03-29 00:00:00,23.4,10.8,30.28,NNW,333,3.0,6.0,58,0.00,,,0.00,0,Wunderground v.1.15,2015-03-29 04:00:00,
2015-03-29 00:10:00,23.3,10.7,30.28,NW,323,3.0,3.0,58,0.00,,,0.00,0,Wunderground v.1.15,2015-03-29 04:10:00,
2015-03-29 00:15:00,23.2,10.6,30.28,NNW,331,2.0,3.0,58,0.00,,,0.00,0,Wunderground v.1.15,2015-03-29 04:15:00,
2015-03-29 00:20:00,23.1,10.5,30.28,NNW,333,1.0,1.0,58,0.00,,,0.00,0,Wunderground v.1.15,2015-03-29 04:20:00,
2015-03-29 00:30:00,23.0,10.8,30.29,NNW,338,2.0,2.0,59,0.00,,,0.00,0,Wunderground v.1.15,2015-03-29 04:30:00,
2015-03-29 00:40:00,22.9,11.1,30.28,NNW,338,2.0,3.0,60,0.00,,,0.00,0,Wunderground v.1.15,2015-03-29 04:40:00,
2015-03-29 00:45:00,22.8,11.0,30.28,NNW,339,1.0,3.0,60,0.00,,,0.00,0,Wunderground v.1.15,2015-03-29 04:45:00,
2015-03-29 00:55:00,22.7,11.3,30.29,NNW,339,1.0,1.0,61,0.00,,,0.00,0,Wunderground v.1.15,2015-03-29 04:55:00,
2015-03-29 01:00:00,22.7,11.3,30.28,NNW,339,1.0,1.0,61,0.00,,,0.00,0,Wunderground v.1.15,2015-03-29 05:00:00,
2015-03-29 01:05:00,22.6,11.2,30.29,NNW,338,1.0,2.0,61,0.00,,,0.00,0,Wunderground v.1.15,2015-03-29 05:05:00,
2015-03-29 01:15:00,22.4,11.0,30.28,NNW,338,1.0,1.0,61,0.00,,,0.00,0,Wunderground v.1.15,2015-03-29 05:15:00,
2015-03-29 01:25:00,22.1,11.1,30.28,NNW,341,1.0,2.0,62,0.00,,,0.00,0,Wunderground v.1.15,2015-03-29 05:25:00,
2015-03-29 01:30:00,21.9,10.9,30.28,NNW,343,1.0,1.0,62,0.00,,,0.00,0,Wunderground v.1.15,2015-03-29 05:30:00,
2015-03-29 01:40:00,21.9,11.2,30.28,NNW,343,0.0,0.0,63,0.00,,,0.00,0,Wunderground v.1.15,2015-03-29 05:40:00,
2015-03-29 01:50:00,21.9,11.2,30.28,NNW,343,0.0,1.0,63,0.00,,,0.00,0,Wunderground v.1.15,2015-03-29 05:50:00,
2015-03-29 01:55:00,21.8,11.1,30.28,NNW,342,1.0,1.0,63,0.00,,,0.00,0,Wunderground v.1.15,2015-03-29 05:55:00,
2015-03-29 02:00:00,21.8,11.1,30.28,NNW,341,1.0,3.0,63,0.00,,,0.00,0,Wunderground v.1.15,2015-03-29 06:00:00,
2015-03-29 02:05:00,21.7,11.4,30.28,NNW,336,2.0,3.0,64,0.00,,,0.00,0,Wunderground v.1.15,2015-03-29 06:05:00,
2015-03-29 02:15:00,21.7,11.0,30.28,NNW,329,2.0,2.0,63,0.00,,,0.00,0,Wunderground v.1.15,2015-03-29 06:15:00,
2015-03-29 02:20:00,21.7,11.4,30.28,NNW,342,2.0,2.0,64,0.00,,,0.00,0,Wunderground v.1.15,2015-03-29 06:20:00,
2015-03-29 02:30:00,21.6,11.3,30.28,NNW,337,1.0,1.0,64,0.00,,,0.00,0,Wunderground v.1.15,2015-03-29 06:30:00,
2015-03-29 02:40:00,21.6,11.3,30.28,NNW,337,0.0,0.0,64,0.00,,,0.00,0,Wunderground v.1.15,2015-03-29 06:40:00,
2015-03-29 02:50:00,21.4,11.1,30.27,NNW,337,0.0,1.0,64,0.00,,,0.00,0,Wunderground v.1.15,2015-03-29 06:50:00,
2015-03-29 02:55:00,21.3,11.0,30.28,NNW,337,1.0,1.0,64,0.00,,,0.00,0,Wunderground v.1.15,2015-03-29 06:55:00,
2015-03-29 03:05:00,21.2,10.9,30.27,NNW,336,0.0,0.0,64,0.00,,,0.00,0,Wunderground v.1.15,2015-03-29 07:05:00,
2015-03-29 03:15:00,21.0,10.7,30.27,NW,319,1.0,2.0,64,0.00,,,0.00,0,Wunderground v.1.15,2015-03-29 07:15:00,
2015-03-29 03:25:00,20.9,11.0,30.27,NW,318,0.0,1.0,65,0.00,,,0.00,0,Wunderground v.1.15,2015-03-29 07:25:00,
2015-03-29 03:30:00,20.9,10.6,30.27,NW,318,0.0,1.0,64,0.00,,,0.00,0,Wunderground v.1.15,2015-03-29 07:30:00,
2015-03-29 03:40:00,20.7,10.4,30.27,NW,321,0.0,0.0,64,0.00,,,0.00,0,Wunderground v.1.15,2015-03-29 07:40:00,
2015-03-29 03:45:00,20.7,10.8,30.27,NW,321,0.0,1.0,65,0.00,,,0.00,0,Wunderground v.1.15,2015-03-29 07:45:00,
2015-03-29 03:55:00,20.5,10.6,30.27,NW,322,0.0,2.0,65,0.00,,,0.00,0,Wunderground v.1.15,2015-03-29 07:55:00,
2015-03-29 04:00:00,20.5,10.6,30.27,NW,321,0.0,0.0,65,0.00,,,0.00,0,Wunderground v.1.15,2015-03-29 08:00:00,
2015-03-29 04:10:00,20.5,10.6,30.27,NW,321,0.0,0.0,65,0.00,,,0.00,0,Wunderground v.1.15,2015-03-29 08:10:00,
2015-03-29 04:20:00,20.5,10.9,30.27,NW,323,1.0,1.0,66,0.00,,,0.00,0,Wunderground v.1.15,2015-03-29 08:20:00,
2015-03-29 04:25:00,20.5,10.9,30.27,NW,323,0.0,1.0,66,0.00,,,0.00,0,Wunderground v.1.15,2015-03-29 08:25:00,
2015-03-29 04:35:00,20.6,11.0,30.28,NW,322,0.0,0.0,66,0.00,,,0.00,0,Wunderground v.1.15,2015-03-29 08:35:00,
2015-03-29 04:45:00,20.5,11.3,30.27,NW,323,0.0,1.0,67,0.00,,,0.00,0,Wunderground v.1.15,2015-03-29 08:45:00,
2015-03-29 04:55:00,20.4,11.5,30.27,NW,323,0.0,0.0,68,0.00,,,0.00,0,Wunderground v.1.15,2015-03-29 08:55:00,
2015-03-29 05:05:00,20.5,11.6,30.27,NW,323,0.0,0.0,68,0.00,,,0.00,0,Wunderground v.1.15,2015-03-29 09:05:00,
2015-03-29 05:15:00,20.3,11.7,30.28,NW,323,0.0,0.0,69,0.00,,,0.00,0,Wunderground v.1.15,2015-03-29 09:15:00,
2015-03-29 05:25:00,20.2,11.7,30.27,NW,322,0.0,0.0,69,0.00,,,0.00,0,Wunderground v.1.15,2015-03-29 09:25:00,
2015-03-29 05:35:00,20.3,11.7,30.28,NW,323,0.0,0.0,69,0.00,,,0.00,0,Wunderground v.1.15,2015-03-29 09:35:00,